STARLINK-2063, 48553

Orbit data source: Space-Track

STARLINK-2063, 48553 is a payload satellite owned by SpaceX/Seattle (US) in LEO that was launched on Sat, 15 May 2021 UTC via an FALCON 9 launch vehicle from the Air Force Eastern Test Range (AFETR). Payload-class satellites include a variety of spacecraft equipped with specific instruments for various scientific and technological missions. These include communications satellites like Starlink; space stations such as the ISS; scientific satellites like the Hubble; Earth observation satellites from companies like Planet Labs, Umbra, and HawkEye 360; GPS; miniature CubeSats for education and research; and military/defense satellites.

Loading next visibility...
Identifier
48553, 2021-041A
Orbit
LEO
Country
Flag of USUS
Related business
Manufacturer
SpaceX/Seattle
Mission
Operational Commercial Communications
Bus & Motor
STARLINK, Unknown motor
Mass
260 kg wet, ~248 kg dry
Launch date (UTC)
2021-05-15 (5 years ago)
Launch vehicle
FALCON 9
Launch site
Air Force Eastern Test Range (AFETR)
Object type
Payload
Rocket body
Debris
Shape & HBR
Box + 1 Pan, 10.1 m
Radar Cross Section
13.562 m², Large (>1 m²)

Expand to show TLE details & history
Last TLE update: 3 days ago

TLE from 3 days ago
0 STARLINK-2063
1 48553U 21041A   26170.86930012  .00001795  00000-0  69605-4 0  9990
2 48553  53.1605  11.4455 0001057  83.2954 276.8168 15.31698263280935
Epoch: 2026-06-19T20:51Z
TLE epoch observation values (Epoch: 2026-06-19T20:51:47.530Z)
Latitude
0.00001°
Longitude
150.40538°
Altitude
471.56 km
Speed
7.632 km/s
True Right ascension
00h 45m 46s
True Declination
0° 00' 00"
Sunlit
Object was in daylight at epoch
Visualization orbit readout
Latitude
Unknown
Longitude
Unknown
Altitude
Unknown
Speed
Unknown
Apparent Right ascension
Unknown
Apparent Declination
Unknown
Sunlit
N/A
Visualization observer readout
Local Sidereal Time
21:48:34
Azimuth
Unknown
Elevation
Unknown
Doppler factor
Unknown
Orbital elements
Apogee altitude
471.726 km
Perigee altitude
470.278 km
Semi-major axis
6,849.139 km
Eccentricity
0.00011
Inclination
53.1605°
RAAN
11.4455°
Arg. of periapsis
83.2954°
True anomaly
276.80477°
Mean anomaly
276.8168°
Eccentric anomaly
276.81079°
Mean motion
3.82903 °/min
Orbital period
94.02 mins
BSTAR
0.000069605
Loading maneuver chart data...
Computing Atmospheric mass density...

Documentation

Showing up to 5 results
|